When you browse on this site, cookies collect data to enhance your experience and personalize the content and advertising you see.
Visit our Privacy Policy to learn more. By continuing to use the site, you agree to this use of cookies and data.
  • In Germany
  • List of Countries
  • For 7 days
  • Water Temperature
  • Satellite Maps
  • Weather Map
  • Weather Widgets
  • user-avatar
    Login

    Hourly Weather Goiania

    Today, 21 January, Monday

    Time Temperature Precipitation Wind Pressure Humidity
    00:00 +24°C° 0.2 mm 1 mps 699 mmHg 79%
    01:00 +24°C° 0 mm 1 mps 699 mmHg 79%
    02:00 +24°C° 0 mm 1 mps 699 mmHg 79%
    03:00 +24°C° 0 mm 1 mps 699 mmHg 79%
    04:00 +24°C° 0 mm 1 mps 699 mmHg 80%
    05:00 +23°C° 0 mm 1 mps 699 mmHg 82%
    06:00 +23°C° 0 mm 1 mps 699 mmHg 83%
    07:00 +25°C° 0 mm 1 mps 700 mmHg 76%
    08:00 +27°C° 0 mm 1 mps 700 mmHg 69%
    09:00 +29°C° 0 mm 1 mps 701 mmHg 61%
    10:00 +31°C° 0 mm 2 mps 701 mmHg 54%
    11:00 +34°C° 0 mm 2 mps 701 mmHg 46%
    12:00 +35°C° 0 mm 2 mps 701 mmHg 39%
    13:00 +35°C° 0 mm 2 mps 701 mmHg 38%
    14:00 +36°C° 0 mm 2 mps 701 mmHg 37%
    15:00 +36°C° 0 mm 2 mps 700 mmHg 36%
    16:00 +35°C° 0 mm 2 mps 700 mmHg 42%
    17:00 +34°C° 0 mm 2 mps 699 mmHg 47%
    18:00 +31°C° 0 mm 1 mps 699 mmHg 53%
    19:00 +30°C° 0 mm 2 mps 699 mmHg 57%
    20:00 +28°C° 0 mm 2 mps 699 mmHg 60%
    21:00 +27°C° 0 mm 2 mps 700 mmHg 64%
    22:00 +26°C° 0 mm 2 mps 700 mmHg 66%
    23:00 +26°C° 0 mm 2 mps 700 mmHg 67%

    Tomorrow, 22 January, Tuesday

    Time Temperature Precipitation Wind Pressure Humidity
    00:00 +26°C° 0 mm 2 mps 700 mmHg 69%
    01:00 +25°C° 0 mm 2 mps 700 mmHg 72%
    02:00 +25°C° 0 mm 2 mps 700 mmHg 75%
    03:00 +24°C° 0 mm 2 mps 699 mmHg 79%
    04:00 +24°C° 0 mm 2 mps 699 mmHg 78%
    05:00 +24°C° 0 mm 2 mps 699 mmHg 78%
    06:00 +23°C° 0 mm 2 mps 699 mmHg 78%
    07:00 +25°C° 0 mm 2 mps 700 mmHg 72%
    08:00 +27°C° 0 mm 2 mps 701 mmHg 66%
    09:00 +30°C° 0 mm 2 mps 701 mmHg 59%
    10:00 +31°C° 0 mm 2 mps 701 mmHg 54%
    11:00 +34°C° 0 mm 2 mps 701 mmHg 49%
    12:00 +34°C° 0 mm 1 mps 701 mmHg 43%
    13:00 +34°C° 0 mm 2 mps 701 mmHg 48%
    14:00 +32°C° 0 mm 2 mps 700 mmHg 52%
    15:00 +33°C° 0 mm 3 mps 699 mmHg 56%
    16:00 +31°C° 0 mm 3 mps 699 mmHg 60%
    17:00 +30°C° 0 mm 3 mps 699 mmHg 64%
    18:00 +29°C° 0 mm 2 mps 698 mmHg 68%
    19:00 +28°C° 0 mm 2 mps 699 mmHg 70%
    20:00 +27°C° 0 mm 2 mps 699 mmHg 72%
    21:00 +26°C° 0 mm 2 mps 699 mmHg 74%
    22:00 +25°C° 0 mm 2 mps 699 mmHg 76%
    23:00 +25°C° 0 mm 2 mps 700 mmHg 77%

    Day after tomorrow, 23 January, Wednesday

    Time Temperature Precipitation Wind Pressure Humidity
    00:00 +24°C° 0 mm 2 mps 700 mmHg 79%
    01:00 +24°C° 0 mm 2 mps 699 mmHg 80%
    02:00 +24°C° 0 mm 2 mps 699 mmHg 82%
    03:00 +23°C° 0 mm 2 mps 698 mmHg 83%
    04:00 +23°C° 0 mm 2 mps 698 mmHg 84%
    05:00 +23°C° 0 mm 2 mps 698 mmHg 85%
    06:00 +23°C° 0 mm 2 mps 699 mmHg 86%
    07:00 +25°C° 0 mm 2 mps 699 mmHg 78%
    08:00 +27°C° 0 mm 3 mps 700 mmHg 69%
    09:00 +29°C° 0 mm 3 mps 701 mmHg 60%
    10:00 +31°C° 0 mm 3 mps 701 mmHg 55%
    11:00 +33°C° 0 mm 3 mps 701 mmHg 49%
    12:00 +34°C° 0 mm 3 mps 701 mmHg 44%
    13:00 +35°C° 0 mm 3 mps 700 mmHg 44%
    14:00 +35°C° 0 mm 2 mps 700 mmHg 43%
    15:00 +35°C° 0 mm 2 mps 699 mmHg 43%
    16:00 +34°C° 0 mm 2 mps 699 mmHg 49%
    17:00 +32°C° 0 mm 1 mps 698 mmHg 55%
    18:00 +31°C° 0 mm 1 mps 698 mmHg 60%
    19:00 +29°C° 0 mm 1 mps 698 mmHg 63%
    20:00 +28°C° 0 mm 1 mps 698 mmHg 66%
    21:00 +25°C° 0 mm 0 mps 699 mmHg 69%
    22:00 +26°C° 0 mm 1 mps 699 mmHg 70%
    23:00 +26°C° 0 mm 1 mps 699 mmHg 70%

    24 January, Thursday

    Time Temperature Precipitation Wind Pressure Humidity
    00:00 +25°C° 0 mm 1 mps 699 mmHg 70%
    01:00 +25°C° 0 mm 2 mps 698 mmHg 71%
    02:00 +24°C° 0 mm 2 mps 698 mmHg 72%
    03:00 +23°C° 0 mm 2 mps 697 mmHg 73%
    04:00 +23°C° 0 mm 2 mps 697 mmHg 74%
    05:00 +23°C° 0 mm 2 mps 697 mmHg 74%
    06:00 +21°C° 0 mm 2 mps 698 mmHg 75%
    07:00 +25°C° 0 mm 2 mps 698 mmHg 68%
    08:00 +27°C° 0 mm 3 mps 699 mmHg 60%
    09:00 +29°C° 0 mm 3 mps 700 mmHg 53%
    10:00 +31°C° 0 mm 3 mps 700 mmHg 48%
    11:00 +33°C° 0 mm 3 mps 700 mmHg 43%
    12:00 +35°C° 0 mm 3 mps 700 mmHg 38%
    13:00 +35°C° 0 mm 3 mps 699 mmHg 36%
    14:00 +35°C° 0 mm 2 mps 699 mmHg 34%
    15:00 +36°C° 0 mm 2 mps 698 mmHg 33%
    16:00 +34°C° 0 mm 1 mps 698 mmHg 37%
    17:00 +33°C° 0 mm 1 mps 697 mmHg 42%
    18:00 +32°C° 0 mm 1 mps 697 mmHg 46%
    19:00 +30°C° 0 mm 1 mps 698 mmHg 47%
    20:00 +29°C° 0 mm 1 mps 698 mmHg 48%
    21:00 +28°C° 0 mm 1 mps 698 mmHg 49%
    22:00 +27°C° 0 mm 1 mps 698 mmHg 51%
    23:00 +26°C° 0 mm 1 mps 698 mmHg 52%

    25 January, Friday

    Time Temperature Precipitation Wind Pressure Humidity
    00:00 +26°C° 0 mm 1 mps 699 mmHg 54%
    01:00 +25°C° 0 mm 2 mps 698 mmHg 57%
    02:00 +25°C° 0 mm 2 mps 697 mmHg 60%
    03:00 +25°C° 0 mm 2 mps 697 mmHg 62%
    04:00 +24°C° 0 mm 2 mps 697 mmHg 65%
    05:00 +24°C° 0 mm 2 mps 697 mmHg 68%
    06:00 +22°C° 0 mm 3 mps 697 mmHg 71%
    07:00 +25°C° 0 mm 3 mps 698 mmHg 67%
    08:00 +27°C° 0 mm 3 mps 698 mmHg 62%
    09:00 +29°C° 0 mm 3 mps 699 mmHg 57%
    10:00 +31°C° 0 mm 3 mps 699 mmHg 52%
    11:00 +33°C° 0 mm 3 mps 699 mmHg 46%
    12:00 +35°C° 0 mm 2 mps 699 mmHg 41%
    13:00 +34°C° 0 mm 2 mps 698 mmHg 43%
    14:00 +33°C° 0 mm 1 mps 698 mmHg 46%
    15:00 +33°C° 0 mm 1 mps 697 mmHg 48%
    16:00 +31°C° 0.1 mm 1 mps 697 mmHg 52%
    17:00 +30°C° 0.1 mm 1 mps 697 mmHg 55%
    18:00 +29°C° 0.1 mm 1 mps 697 mmHg 58%
    19:00 +28°C° 0.7 mm 1 mps 697 mmHg 65%
    20:00 +26°C° 0.7 mm 2 mps 697 mmHg 71%
    21:00 +25°C° 0.7 mm 2 mps 697 mmHg 78%
    22:00 +25°C° 0.8 mm 2 mps 698 mmHg 81%
    23:00 +24°C° 0.8 mm 2 mps 698 mmHg 84%

    26 January, Saturday

    Time Temperature Precipitation Wind Pressure Humidity
    00:00 +24°C° 0.8 mm 2 mps 698 mmHg 86%
    01:00 +24°C° 0 mm 2 mps 698 mmHg 87%
    02:00 +23°C° 0 mm 2 mps 698 mmHg 87%
    03:00 +22°C° 0 mm 3 mps 698 mmHg 88%
    04:00 +22°C° 0 mm 3 mps 698 mmHg 87%
    05:00 +22°C° 0 mm 3 mps 698 mmHg 86%
    06:00 +22°C° 0 mm 3 mps 698 mmHg 85%
    07:00 +24°C° 0 mm 3 mps 699 mmHg 81%
    08:00 +25°C° 0 mm 3 mps 699 mmHg 77%
    09:00 +26°C° 0 mm 3 mps 700 mmHg 73%
    10:00 +27°C° 0.4 mm 3 mps 700 mmHg 68%
    11:00 +29°C° 0.4 mm 3 mps 700 mmHg 62%
    12:00 +31°C° 0.4 mm 3 mps 700 mmHg 57%
    13:00 +30°C° 1.3 mm 3 mps 699 mmHg 62%
    14:00 +29°C° 1.3 mm 3 mps 698 mmHg 67%
    15:00 +28°C° 1.3 mm 3 mps 698 mmHg 72%
    16:00 +27°C° 1.1 mm 2 mps 698 mmHg 75%
    17:00 +27°C° 1.1 mm 2 mps 698 mmHg 78%
    18:00 +26°C° 1.1 mm 1 mps 698 mmHg 81%
    19:00 +25°C° 0.1 mm 2 mps 698 mmHg 83%
    20:00 +24°C° 0.1 mm 2 mps 699 mmHg 84%
    21:00 +23°C° 0.1 mm 2 mps 699 mmHg 86%
    22:00 +23°C° 0.2 mm 2 mps 699 mmHg 87%
    23:00 +21°C° 0.2 mm 3 mps 699 mmHg 89%
    Show more